Regional Weather Roundup
Issued by NWS

Home | Current Version | Previous Version | Graphics & Text | Print | Product List | Glossary On
Versions: 1 2 3 4 5 6 7 8 9 10 11 12 13 14 15 16 17 18 19 20 21 22 23 24 25 26 27 28 29 30 31 32 33 34 35 36 37 38 39 40 41 42 43 44 45 46 47 48 49 50
827
ASUS44 KJAN 311710
RWRMS

MISSISSIPPI HOURLY WEATHER ROUNDUP
NATIONAL WEATHER SERVICE JACKSON MS
1200 PM CDT FRI OCT 31 2014

NOTE: "FAIR: INDICATES FEW OR NO CLOUDS BELOW 12,000 FEET WITH NO
SIGNIFICANT WEATHER AND/OR OBSTRUCTIONS TO VISIBILITY.

MSZ001>002-007>008-010>013-018>021-025>028-034>036-311800-
NORTHWEST MISSISSIPPI

CITY           SKY/WX    TMP DP  RH WIND       PRES   REMARKS
CLARKSDALE     CLOUDY    57  48  72 N18G29    30.16R
CLEVELAND      FAIR      61  50  68 N18G25    30.12S
GREENWOOD      SUNNY     64  48  56 N14G25    30.09S
GREENVILLE     SUNNY     64  48  56 N20       30.12S
GRENADA        FAIR      63  46  55 N15G23    30.08S
OLIVE BRANCH   CLOUDY    54  50  87 N14       30.13R
OXFORD         PTSUNNY   59  46  63 N13G18    30.10S
TUNICA         CLOUDY    55  46  71 N16G22    30.16R
$$

MSZ003>006-009-014>017-022>024-029>033-037>039-311800-
NORTHEAST MISSISSIPPI

CITY           SKY/WX    TMP DP  RH WIND       PRES   REMARKS
COLUMBUS AFB   SUNNY     64  46  52 N13G18    30.02F
CORINTH        PTSUNNY   61  46  59 N14G21    30.05S
GOLDN TRIANGLE SUNNY     66  46  48 N16       30.02S
STARKVILLE     FAIR      64  50  59 N10       30.03S
TUPELO         SUNNY     62  48  60 N15       30.04F
$$

MSZ040-058-311800-
CENTRAL MISSISSIPPI

CITY           SKY/WX    TMP DP  RH WIND       PRES   REMARKS
JACKSON INTL   SUNNY     68  47  46 NW16G24   30.06F
JACKSON HAWKNS SUNNY     66  47  50 NW14      30.08S
MERIDIAN KEY   SUNNY     69  47  45 NW12G22   30.00F
MERIDIAN NAS   SUNNY     69  47  45 NW12G23   30.00F
RAYMOND        FAIR      66  61  82 N13G21    30.08F
VICKSBURG      SUNNY     67  47  48 N15G22    30.12R
$$

MSZ059>079-311800-
SOUTH MISSISSIPPI

CITY           SKY/WX    TMP DP  RH WIND       PRES   REMARKS
BROOKHAVEN     FAIR      66  48  52 N13       30.09S
COLUMBIA         N/A     70  48  46 MISG      30.03F
HATTIESBURG    SUNNY     69  50  50 VRB6      30.03S
MCCOMB         SUNNY     69  45  41 NW18G26   30.07S
NATCHEZ        SUNNY     66  46  48 N14       30.12S
PINE BELT      SUNNY     70  48  46 NW13G18   30.03F
$$

MSZ080>082-311800-
COASTAL MISSISSIPPI

CITY           SKY/WX    TMP DP  RH WIND       PRES   REMARKS
BAY ST LOUIS   SUNNY     72  43  35 NW7       30.03F
BILOXI         SUNNY     74  47  37 W8        30.01F
PASCAGOULA     SUNNY     72  45  37 NW7       30.00F
GULFPORT       SUNNY     72  46  39 W6        30.00F
$$



USA.gov is the U.S. government's official web portal to all federal, state and local government web resources and services.